STARLINK-1394 (45679 NORAD) Tracking and Keplerian Element Data

This shows tracking and keplerian element data for the satellite.

Feedback or suggestion? Click here.




ElementValue
Catalog45679
NameSTARLINK-1394
Epoch Orbit1073
Epoch Day218.91667824
Epoch Year2020
RAAN223.2004
Inclination52.9955
Eccentricity0.0001248
Argument of Perigee68.487
Mean Anonmoly265.4785
Mean Motion15.261321
Decay Rate-0.01063865
L11 45679U 20035Y 20218.91667824 -.01063865 00000-0 -44378-1 0 9995
L22 45679 52.9955 223.2004 0001248 68.4870 265.4785 15.26132100 10738

Live tracking and technical data element details for STARLINK-1394 (NORAD 45679). STARLINK-1394 can be tracked NOW for your location showing map with azimuth and elevation plus other details from your city location.

Track the satellite on the map from your city or location and see movement details for azimuth, elevation, latitude, longitude, range, height, and movement on the map or in text.







IsCatalogInMostPopularTable: catalog: 45679, numindb: 9
Update: records affected: 1



GetName: 45679 STARLINK-1394

Hit Count: updated at: Fri, 07 Aug 2020 23:57:42 GMT